Regional Weather Roundup
Issued by NWS Green Bay, WI

Home | Current Version | Previous Version | Graphics & Text | Print | Product List | Glossary Off
Versions: 1 2 3 4 5 6 7 8 9 10 11 12 13 14 15 16 17 18 19 20 21 22 23 24 25 26 27 28 29 30 31 32 33 34 35 36 37 38 39 40 41 42 43 44 45 46 47 48 49 50

000
ASUS43 KGRB 221259
RWRGRB

NORTH-CENTRAL AND NORTHEAST WISCONSIN REGIONAL WEATHER ROUNDUP
NATIONAL WEATHER SERVICE GREEN BAY WI
700 AM CST MON DEC 22 2014

WIZ005-009-010>012-018-019-221400-
NORTH CENTRAL WISCONSIN

CITY           SKY/WX    TMP DP  RH WIND       PRES   REMARKS
IRONWOOD       CLOUDY    36  32  87 SE8       29.76R
MANITOWISH WTR NOT AVBL
ARBOR VITAE    NOT AVBL
EAGLE RIVER    NOT AVBL
LAND O LAKES   NOT AVBL
RHINELANDER    CLOUDY    31  30  96 S9        29.82S FOG
PHILLIPS       NOT AVBL
ANTIGO         NOT AVBL
TOMAHAWK       NOT AVBL
MERRILL        NOT AVBL
$$

WIZ013-073-221400-
NORTHEAST WISCONSIN

CITY           SKY/WX    TMP DP  RH WIND       PRES   REMARKS
IRON MOUNTAIN  CLOUDY    33  30  88 SE7       29.88S
MARINETTE      CLOUDY    36  30  80 S8        29.93S
$$

WIZ017-030-035>037-045-221400-
CENTRAL WISCONSIN

CITY           SKY/WX    TMP DP  RH WIND       PRES   REMARKS
MEDFORD        NOT AVBL
WAUSAU         CLOUDY    33  30  88 SE9       29.83S FOG
MOSINEE        CLOUDY    32  32 100 SE9       29.84S FOG
MARSHFIELD     CLOUDY    34  31  88 SE13      29.82S FOG
WISC RAPIDS    CLOUDY    34  29  82 SE7       29.85S
STEVENS POINT  NOT AVBL
WAUPACA        NOT AVBL
SHAWANO        NOT AVBL
CLINTONVILLE   NOT AVBL
$$

WIZ038-039-048-051-221400-
FOX VALLEY

CITY           SKY/WX    TMP DP  RH WIND       PRES   REMARKS
NWS GREEN BAY  CLOUDY    35  32  88 S13       29.92S FOG
APPLETON       NOT AVBL
OSHKOSH        MIX PCPN  33  31  92 SE12      29.91R FOG
FOND DU LAC    LGT SNOW  33  30  88 SE10      29.91S FOG
$$

WIZ022-050-052-221400-
EAST CENTRAL WISCONSIN

CITY           SKY/WX    TMP DP  RH WIND       PRES   REMARKS
STURGEON BAY   CLOUDY    36  30  80 S17       29.95F
MANITOWOC      NOT AVBL
SHEBOYGAN      CLOUDY    36  32  85 S9        29.94S
$$

LMZ563-521-522-541>543-221400-
LAKESHORE

STATION/POSITION TIME  TEMP    WIND        PRES    VSBY  WAVE
                       AIR SEA DIR/SP/G                  HT/PER
                 (UTC) (F)     (DEG/KT/KT) (MB)    (MI)  (FT/S)
SHEBOYGAN LKSHOR 1200   37 36  160/ 20/ 22 1014.6R
KEWAUNEE LKSHORE 1200   37     170/ 21/ 24 1013.2S
ALGOMA MARINA    1200          210/ 21/ 26   N/A
NORTHPORT PIER   1200   36     150/ 13/ 21 1014.6S
SISTER BAY LKSHO 1200          180/ 12/ 17   N/A
CHAMBERS ISLAND  1200   37     140/  3/ 10 1014.2S
MENOMINEE LKSHOR 1200   35     160/  9/ 11 1014.2F
$$


USA.gov is the U.S. government's official web portal to all federal, state and local government web resources and services.